Showing default

GONETS D1 6, 24730

Orbit data source: Space-Track

GONETS D1 6, 24730 is a payload satellite owned by Gonets (CIS) in LEO that was launched on Fri, 14 Feb 1997 UTC via a TSIKLON-3 launch vehicle from the Plesetsk Missile And Space Complex (PKMTR). Payload-class satellites include a variety of spacecraft equipped with specific instruments for various scientific and technological missions. These include communications satellites like Starlink; space stations such as the ISS; scientific satellites like the Hubble; Earth observation satellites from companies like Planet Labs, Umbra, and HawkEye 360; GPS; miniature CubeSats for education and research; and military/defense satellites.

Loading next visibility...
Identifier
24730, 1997-006F
Orbit
LEO
Country
Flag of CISCIS
Related business
Manufacturer
NPO PM
Mission
Non-operational Civil Communications
Bus & Motor
STRELA-3, Unknown motor
Mass
225 kg wet, 225 kg dry
Launch date (UTC)
1997-02-14 (29 years ago)
Launch vehicle
TSIKLON-3
Launch site
Plesetsk Missile And Space Complex (PKMTR)
Object type
Payload
Rocket body
Debris
Shape & HBR
Cyl + 1 Ant, 3.5 m
Radar Cross Section
1.798 m², Medium (>0.1 m² and < 1m²)

Expand to show TLE details & history
Last TLE update: 12 hours ago

TLE from 12 hours ago
0 GONETS D1 6
1 24730U 97006F   25307.96717697  .00000016  00000-0  28479-4 0  9998
2 24730  82.6111  40.2762 0003661 105.7134 254.4362 12.62490905323254
Epoch: 2025-11-03T23:12Z
TLE epoch observation values (Epoch: 2025-11-03T23:12:44.090Z)
Latitude
0.00006°
Longitude
8.63154°
Altitude
1,416.177 km
Speed
7.152 km/s
True Right ascension
02h 41m 06s
True Declination
0° 00' 00"
Sunlit
Object was in full shadow at epoch
Visualization orbit readout
Latitude
Unknown
Longitude
Unknown
Altitude
Unknown
Speed
Unknown
Apparent Right ascension
Unknown
Apparent Declination
Unknown
Sunlit
N/A
Visualization observer readout
Local Sidereal Time
06:55:07
Azimuth
Unknown
Elevation
Unknown
Doppler factor
Unknown
Orbital elements
Apogee altitude
1,412.85 km
Perigee altitude
1,407.148 km
Semi-major axis
7,788.136 km
Eccentricity
0.00037
Inclination
82.6111°
RAAN
40.2762°
Arg. of periapsis
105.7134°
True anomaly
254.39579°
Mean anomaly
254.4362°
Eccentric anomaly
254.416°
Mean motion
3.15786 °/min
Orbital period
114 mins
BSTAR
0.000028479
Loading maneuver chart data...
Computing Atmospheric mass density...
Loading historical data...
Loading historical data...
Loading historical data...
Loading historical data...
Loading historical data...
Loading historical data...
Loading historical data...

Documentation

Showing up to 5 results
|